Regional Weather Roundup
Issued by NWS Grand Forks, ND

Home | Current Version | Previous Version | Graphics & Text | Print | Product List | Glossary On
Versions: 1 2 3 4 5 6 7 8 9 10 11 12 13 14 15 16 17 18 19 20 21 22 23 24 25 26 27 28 29 30 31 32 33 34 35 36 37 38 39 40 41 42 43 44 45 46 47 48 49 50
000
ASUS43 KFGF 201831
RWRFGF
PRAIRIE TO PINES  WEATHER ROUNDUP
NATIONAL WEATHER SERVICE EASTERN NORTH DAKOTA/GRAND FORKS ND
100 PM CDT WED AUG 20 2014

 **SATELLITE DATA USED TO AUGMENT SKY COVER AT AUTOMATED STATIONS**
 *****  WEATHER ACROSS EASTERN NORTH DAKOTA  *****

CITY           SKY/WX    TMP DP  RH WIND       PRES   REMARKS
GRAND FORKS    PTSUNNY   81  67  62 SE15      29.78R
6HR MIN TEMP:  63; 6HR MAX TEMP:  81;

GRAND FRKS AFB PTSUNNY   81  69  65 SE16      29.79R
GRAND FRKS NWS   N/A     72 N/A N/A S7          N/A
DEVILS LAKE    PTSUNNY   81  64  57 S15G22    29.75S
6HR MIN TEMP:  68; 6HR MAX TEMP:  81;

FARGO          PTSUNNY   83  67  58 SE10      29.78S
WAHPETON ARPT  MOCLDY    79  64  61 S12G17    29.80S
$$

 ***** WEATHER ACROSS CENTRAL AND WESTERN NORTH DAKOTA  *****

CITY           SKY/WX    TMP DP  RH WIND       PRES   REMARKS
BISMARCK       CLOUDY    78  67  68 SE9       29.72F
6HR MIN TEMP:  62; 6HR MAX TEMP:  78;

MINOT          PTSUNNY   81  66  60 N7        29.71S
6HR MIN TEMP:  63; 6HR MAX TEMP:  83;

JAMESTOWN      CLOUDY    79  65  62 SE17      29.76S
6HR MIN TEMP:  64; 6HR MAX TEMP:  80;

MINOT AFB      PTSUNNY   82  65  56 N5        29.70S
GARRISON         N/A     77  67  71 S12       29.73R
WILLISTON      CLOUDY    75  64  68 SE9       29.71R
6HR MIN TEMP:  68; 6HR MAX TEMP:  75; 6HR PCP:  0.08;

DICKINSON      RAIN      72  66  81 SE3       29.71R
6HR MIN TEMP:  64; 6HR MAX TEMP:  75; 6HR PCP:  0.01;

HETTINGER      CLOUDY    76  65  68 SE13      29.70F
6HR MIN TEMP:  68; 6HR MAX TEMP:  76;

$$

 *****  OTHER AIRPORT OBSERVATIONS IN OUR AREA  *****

CITY           SKY/WX    TMP DP  RH WIND       PRES   REMARKS
WALHALLA       FAIR      82  68  61 S13G20    29.76S
GRAFTON AIRPOR FAIR      82  66  57 S15       29.78S
VALLEY CITY AR FAIR      81  66  61 S12G21    29.78S
CANDO          FAIR      82  66  57 S15G24    29.75F
CAVALIER APRT  FAIR      81  66  61 S15G21    29.76F
GWINNER        CLEAR     82  70  65 SE14      29.79S
SHEYENNE NWR     N/A     82  68  61 SE12      29.95
ROLLA            N/A     77  66  69 NW16      29.81R
 ***** THE ABOVE OBSERVATIONS ARE NON NWS ARE NOT QUALITY
       CONTROLLED AND MAY MIS-REPORT RAIN FOR SNOW...
$$

  *****  WEATHER ACROSS NORTHERN MINNESOTA  *****

CITY           SKY/WX    TMP DP  RH WIND       PRES   REMARKS
FLAG ISLAND    MOSUNNY   73  63  68 S7        29.84S
WARROAD        MOSUNNY   77  66  69 E12       29.83S
ROSEAU         SUNNY     81  64  57 SE10      29.82R
HALLOCK        SUNNY     82  66  57 S12       29.78S
THF RVR FALLS  MOSUNNY   79  64  61 SE9       29.82R
6HR MIN TEMP:  61; 6HR MAX TEMP:  79;

BAUDETTE       PTSUNNY   76  62  62 SE10      29.85F
6HR MIN TEMP:  59; 6HR MAX TEMP:  76;

WASKISH        CLOUDY    75  63  64 CALM      29.84F
CROOKSTON      PTSUNNY   81  64  57 SE14      29.80S
$$
  *****  WEATHER ACROSS CENTRAL AND WEST MINNESOTA  *****

CITY           SKY/WX    TMP DP  RH WIND       PRES   REMARKS
FOSSTON        MOSUNNY   79  64  61 SE7       29.83S
BEMIDJI        PTSUNNY   76  63  64 SE9       29.86R
PARK RAPIDS    MOSUNNY   76  62  62 SE10      29.85R
6HR MIN TEMP:  64; 6HR MAX TEMP:  76;

ELBOW LAKE     FAIR      79  67  66 SE9       29.82S
6HR MIN TEMP:  64; 6HR MAX TEMP:  80;

WADENA         PTSUNNY   75  64  69 SE9       29.84S
DETROIT LAKES  MOSUNNY   79  63  57 S10       29.84S
MOORHEAD       MOSUNNY   81  70  69 SE9       29.79S
FERGUS FALLS   PTSUNNY   79  64  61 SE12      29.81S
MORRIS MN      PTSUNNY   82  66  57 SE14      29.81S
STAPLES        PTSUNNY   75  63  64 SE3       29.85S
$$
  *****  WEATHER ELSEWHERE ACROSS MINNESOTA  *****

CITY           SKY/WX    TMP DP  RH WIND       PRES   REMARKS
DULUTH         CLOUDY    67  58  72 S5        29.90F
6HR MIN TEMP:  60; 6HR MAX TEMP:  68;

INTRNTL FALLS  PTSUNNY   72  58  61 E6        29.88R
6HR MIN TEMP:  53; 6HR MAX TEMP:  74;

ELY            CLOUDY    68  59  73 NE3       29.90S
CLOQUET        CLOUDY    70  57  64 E6        29.89F
WHEATON        CLOUDY    75  68  78 SE12      29.82S
BRAINERD       MOSUNNY   73  63  70 NE8       29.86F
6HR MIN TEMP:  55; 6HR MAX TEMP:  73;

HIBBING        CLOUDY    72  58  61 CALM      29.89F
6HR MIN TEMP:  55; 6HR MAX TEMP:  72;

ALEXANDRIA     PTSUNNY   79  66  64 SE10      29.86R
6HR MIN TEMP:  63; 6HR MAX TEMP:  79;

SAINT CLOUD    MOSUNNY   81  65  58 SE8       29.86R
6HR MIN TEMP:  63; 6HR MAX TEMP:  81;

MINNEAPOLIS    MOSUNNY   79  65  62 S7G20     29.87R
6HR MIN TEMP:  66; 6HR MAX TEMP:  79;

$$

  *****  WEATHER ACROSS SOUTH DAKOTA  *****

CITY           SKY/WX    TMP DP  RH WIND       PRES   REMARKS
SIOUX FALLS    PTSUNNY   79  68  69 SE13      29.79F
6HR MIN TEMP:  68; 6HR MAX TEMP:  80; 6HR PCP:  0.01;

BROOKINGS      NOT AVBL
WATERTOWN      PTSUNNY   81  65  58 SE14      29.81S
6HR MIN TEMP:  65; 6HR MAX TEMP:  81;

HURON          PTSUNNY   84  65  52 SE17G23   29.73F
6HR MIN TEMP:  68; 6HR MAX TEMP:  84;

SISSETON         N/A     79  66  64 S15       29.78S
ABERDEEN       PTSUNNY   83  65  54 SE15      29.74F
6HR MIN TEMP:  61; 6HR MAX TEMP:  84;

MITCHELL       MOSUNNY   85  70  60 SE10      29.73F
PIERRE         CLOUDY    79  68  69 SE9       29.69F
6HR MIN TEMP:  66; 6HR MAX TEMP:  81; 6HR PCP: TRACE;

MOBRIDGE       PTSUNNY   79  67  66 S17       29.70R
RAPID CITY     MOSUNNY   83  59  44 SE7       29.75S
6HR MIN TEMP:  64; 6HR MAX TEMP:  83; 6HR PCP: TRACE;

$$

  *****  SOME WEATHER IN NEARBY STATES *****

CITY           SKY/WX    TMP DP  RH WIND       PRES   REMARKS
GLASGOW MT     CLOUDY    70  58  65 NW12      29.75R
6HR MIN TEMP:  62; 6HR MAX TEMP:  73; 6HR PCP: TRACE;

GREAT FALLS MT SUNNY     76  44  32 VRB3      29.84S
6HR MIN TEMP:  54; 6HR MAX TEMP:  76; 6HR PCP: TRACE;

CHEYENNE WY    MOSUNNY   76  47  35 W20G36    30.01S
6HR MIN TEMP:  62; 6HR MAX TEMP:  79;

SCOTTSBLUFF NE SUNNY     88  56  33 NW12      29.84F
6HR MIN TEMP:  63; 6HR MAX TEMP:  88;

OMAHA NE       CLOUDY    82  68  62 SE18      29.84F
6HR MIN TEMP:  73; 6HR MAX TEMP:  82; 6HR PCP: TRACE;

DES MOINES IA  LGT RAIN  74  68  81 S8        29.86R
6HR MIN TEMP:  68; 6HR MAX TEMP:  74; 6HR PCP:  1.47;

DAVENPORT IA   CLOUDY    78  68  71 CALM      29.91F
6HR MIN TEMP:  60; 6HR MAX TEMP:  78; 6HR PCP: TRACE;

CHICAGO IL     PTSUNNY   83  64  52 SW12G20   29.91S
6HR MIN TEMP:  68; 6HR MAX TEMP:  83;

EAU CLAIRE WI  PTSUNNY   72  61  68 CALM      29.89F
6HR MIN TEMP:  60; 6HR MAX TEMP:  75;

LA CROSSE WI   SUNNY     81  65  58 E6        29.86F
6HR MIN TEMP:  64; 6HR MAX TEMP:  81;

$$

  *****  SOME NATIONAL WEATHER *****

CITY           SKY/WX    TMP DP  RH WIND       PRES   REMARKS
LA GUARDIA NY  MOSUNNY   81  58  45 S14       29.98F
6HR MIN TEMP:  72; 6HR MAX TEMP:  84;

RALEIGH NC     MOSUNNY   86  70  58 SE5       29.98F HX  90
6HR MIN TEMP:  73; 6HR MAX TEMP:  87;

ATLANTA GA     PTSUNNY   84  74  71 SW10      30.07S HX  91
6HR MIN TEMP:  73; 6HR MAX TEMP:  89;

NEW ORLEANS LA PTSUNNY   90  77  65 VRB5      30.07F HX 103
6HR MIN TEMP:  78; 6HR MAX TEMP:  92;

OKLAHOMA CITY  SUNNY     92  63  38 S20G26    29.93S HX  93
6HR MIN TEMP:  73; 6HR MAX TEMP:  92;

ALBUQUERQUE NM MOSUNNY   79  52  38 NE8       30.11F
6HR MIN TEMP:  66; 6HR MAX TEMP:  79;

SALT LAKE CITY MOSUNNY   73  55  53 S15G24    30.00F
6HR MIN TEMP:  62; 6HR MAX TEMP:  73;

LOS ANGELES CA MOSUNNY   75  58  55 SW9       29.96R
6HR MIN TEMP:  69; 6HR MAX TEMP:  75;



USA.gov is the U.S. government's official web portal to all federal, state and local government web resources and services.